User: anonymous   Login
Location: Unspecified
(0.0000°N, 0.0000°E)
Time: 01:38:34
(UTC+01:00)
Language:

ARIANE 5 R/B - Orbit

View from above orbital plane
View from above orbital plane
View from above satellite
View from above satellite

Ground track
Ground track

The orbit data is extracted from the following two-line orbital elements,

1 28886U 05041C   17050.58898625  .00000037  00000-0  38808-3 0  9996
2 28886   8.1786  45.2184 7182914  12.3591  59.9275  2.24333043 93093
Epoch (UTC): 19 February 2017 14:08:08
Eccentricity: 0.7182914
inclination: 8.1786°
perigee height: 566 km
apogee height: 35976 km
right ascension of ascending node: 45.2184°
argument of perigee: 12.3591°
revolutions per day: 2.24333043
mean anomaly at epoch: 59.9275°
orbit number at epoch: 9309

The dashed part of the orbit path shows where the satellite is in the earth's shadow,  

DLR